Regional Weather Roundup
Issued by NWS

Home | Current Version | Previous Version | Text Only | Print | Product List | Glossary On
Versions: 1 2 3 4 5 6 7 8 9 10 11 12 13 14 15 16 17 18 19 20 21 22 23 24 25 26 27 28 29 30 31 32 33 34 35 36 37 38 39 40 41 42 43 44 45 46 47 48 49 50
000
ASUS43 KMPX 290101
RWRMN
WEATHER ROUNDUP FOR MINNESOTA
NATIONAL WEATHER SERVICE TWIN CITIES/CHANHASSEN MN
800 PM CDT THU AUG 28 2014


NOTE: "FAIR" INDICATES FEW OR NO CLOUDS BELOW 12,000 FEET WITH NO
SIGNIFICANT WEATHER AND/OR OBSTRUCTIONS TO VISIBILITY. N/A MEANS
CURRENT SKY AND/OR WEATHER CONDITIONS ARE NOT AVAILABLE.

MNZ060>063-068>070-290200-
   Twin Cities Metro

CITY           SKY/WX    TMP DP  RH WIND       PRES   REMARKS
TWIN CITIES    DRIZZLE   67  64  90 SE15      29.94F
ST PAUL        CLOUDY    67  64  90 SE10      29.95F
CRYSTAL        CLOUDY    69  62  78 SE12      29.93S
BLAINE         CLOUDY    70  66  88 SE8       29.95F
LAKEVILLE      CLOUDY    64  63  94 E7        29.94F
EDEN PRAIRIE   CLOUDY    68  63  84 SE13      29.93F
SOUTH ST PAUL  CLOUDY    67  64  89 SE6       29.94F
LAKE ELMO      CLOUDY    68  64  88 E6        29.97S
$$
MNZ001>005-007-008-013>017-022>024-027-028-290200-
   Northwest Minnesota

CITY           SKY/WX    TMP DP  RH WIND       PRES   REMARKS
BEMIDJI        CLOUDY    67  60  77 S8        29.93S
HALLOCK        MOCLDY    72  66  83 S15G22    29.83S
ROSEAU         MOCLDY    70  63  78 S8        29.88S
WARROAD        CLOUDY    70  64  83 S5        29.89S
THIEF RVR FALL CLOUDY    70  63  78 S9        29.89S
CROOKSTON      CLOUDY    70  63  78 S12       29.88F
FOSSTON        CLOUDY    66  59  77 S7        29.91F
DETROIT LAKES  DRIZZLE   66  61  82 SE10      29.93F
MOORHEAD       DRIZZLE   66  66 100 SE8       29.89F
PARK RAPIDS    CLOUDY    66  62  87 E6        29.94S
MAHNOMEN       FAIR      67  62  83 SE6       29.90F
$$
MNZ006-009>011-018-025>026-290200-
   North Central Minnesota

CITY           SKY/WX    TMP DP  RH WIND       PRES   REMARKS
BAUDETTE       CLOUDY    68  62  81 S6        29.90F
FLAG ISLAND    CLOUDY    70  63  78 S13       29.87S
INTL FALLS     CLOUDY    67  59  75 CALM      29.93F
WASKISH        CLOUDY    66  63  88 CALM      29.92F
BIG FORK       CLOUDY    66  61  82 S3        29.96S
LONGVILLE      LGT RAIN  64  63  94 CALM      29.95F
GRAND RAPIDS   CLOUDY    66  57  72 SE7       29.97S
CRANE LAKE     CLOUDY    64  59  82 CALM      29.96S
ORR            CLOUDY    66  55  68 CALM      29.94S
COOK           CLOUDY    66  57  72 SE5       29.97S
WALKER         FAIR      66  61  82 SE6       29.95S
$$
MNZ012-019>021-037-290200-
   Northeast Minnesota

CITY           SKY/WX    TMP DP  RH WIND       PRES   REMARKS
DULUTH         CLOUDY    62  53  72 E7        30.00S
ELY            CLOUDY    64  54  68 S8        29.99S
HIBBING        CLOUDY    67  58  72 SE7       29.98S
EVELETH        CLOUDY    64  55  72 SE7       30.00S
DULUTH HARBOR  CLOUDY    63  61  94 NE8       30.00S
TWO HARBORS    CLOUDY    61  52  72 NE5       30.00R
SILVER BAY     CLOUDY    57  55  94 CALM      30.00S
GRAND MARAIS     N/A     59  55  87 CALM      30.01F
G MARAIS ARPRT MOCLDY    55  48  76 CALM      30.05S
$$
MNZ029>031-032-039>041-046>048-054>057-064-290200-
   West Central Minnesota

CITY           SKY/WX    TMP DP  RH WIND       PRES   REMARKS
FERGUS FALLS   CLOUDY    66  63  88 SE6       29.90S
WHEATON        CLOUDY    63  63 100 E6        29.90S
MORRIS         DRIZZLE   66  64  94 SE7       29.89S
ALEXANDRIA     LGT RAIN  64  63  96 SE12      29.93F FOG
ELBOW LAKE     CLOUDY    65  63  93 SE7       29.90S
WADENA         CLOUDY    64  63  94 SE8       29.93S
GLENWOOD       DRIZZLE   64  63  94 E9        29.92S
APPLETON       CLOUDY    66  64  94 SE7       29.88S FOG
BENSON         DRIZZLE   66  64  94 SE7       29.89F
ORTONVILLE     DRIZZLE   64  63  94 E6        29.88S
MADISON        MOCLDY    70  66  88 E7        29.88S FOG
WILLMAR        CLOUDY    66  64  94 E10       29.91F FOG
$$
MNZ033>034-036-042>043-049>051-058-059-290200-
   Central Minnesota

CITY           SKY/WX    TMP DP  RH WIND       PRES   REMARKS
ST CLOUD       CLOUDY    68  64  87 E6        29.94S
SAUK CENTRE    RAIN      64  63  97 E9        29.93S
PAYNESVILLE    RAIN      63  63  99 NE7       29.93S
AITKIN         CLOUDY    68  61  77 CALM      29.95S
PINE RIVER     DRIZZLE   64  63  94 SE3       29.98F
BRAINERD       LGT RAIN  65  62  90 SE8       29.96S
STAPLES        RAIN      64  63  94 SE5       29.94S
LONG PRAIRIE   RAIN      63  61  94 E6        29.94F
LITTLE FALLS   DRIZZLE   64  61  88 SE6       29.94F
LITCHFIELD     CLOUDY    68  66  94 SE12G17   29.93S
BUFFALO        CLOUDY    67  63  85 E8        29.95R
MAPLE LAKE     CLOUDY    69  66  90 E7        29.94S
$$
MNZ037-044-045-052-053-290200-
   East Central Minnesota

CITY           SKY/WX    TMP DP  RH WIND       PRES   REMARKS
PRINCETON      CLOUDY    66  64  94 E6        29.95F
MORA           LGT RAIN  64  63  94 E3        29.99S
CAMBRIDGE      LGT RAIN  68  59  73 E5        29.95S
RUSH CITY      CLOUDY    66  63  90 SE3       29.98S
MOOSE LAKE     CLOUDY    68  61  77 SE3       29.97S
HINCKLEY       LGT RAIN  66  63  88 E3        29.98S
CLOQUET        CLOUDY    63  54  72 E5        30.00S
MCGREGOR       CLOUDY    66  61  82 SE3       29.97F
$$
MNZ071>073-080-081-089-090-097-098-290200-
   Southwest Minnesota

CITY           SKY/WX    TMP DP  RH WIND       PRES   REMARKS
MONTEVIDEO     CLOUDY    66  66 100 SE10      29.89S
GRANITE FALLS  CLOUDY    67  66  98 E6        29.89S
CANBY          CLOUDY    67  66  96 E7        29.88S FOG
MARSHALL       CLOUDY    70  64  83 E9        29.86S
REDWOOD FALLS  CLOUDY    68  66  93 SE8       29.88S
OLIVIA         CLOUDY    70  68  94 SE13      29.89S
PIPESTONE      CLOUDY    70  66  88 SE5       29.87S
WINDOM         CLOUDY    66  66 100 E8        29.89S FOG
WORTHINGTON    CLOUDY    68  66  94 E10       29.88F VSB 3/4
JACKSON        RAIN      66  63  88 E8        29.89F
TRACY          CLOUDY    69  68  95 CALM      29.88S
SLAYTON        CLOUDY    67  67  99 CALM      29.89S
$$
MNZ065>067-074>077-082>085-091>093-290200-
   South Central Minnesota

CITY           SKY/WX    TMP DP  RH WIND       PRES   REMARKS
MANKATO        CLOUDY    66  61  82 E9        29.91F
NEW ULM        CLOUDY    66  66 100 E10       29.89F
ST JAMES       DRIZZLE   66  64  94 E8        29.90F
FAIRMONT       CLOUDY    64  61  88 E9        29.89F
GLENCOE        CLOUDY    68  63  83 E8        29.92F
FARIBAULT      CLOUDY    66  63  88 E6        29.94F
OWATONNA       CLOUDY    66  63  88 E10       29.93F
WASECA         CLOUDY    63  57  82 E10       29.93F
ALBERT LEA     DRIZZLE   64  64 100 E5        29.92F
$$
MNZ078>079-086>088-094>096-290200-
   Southeast Minnesota

CITY           SKY/WX    TMP DP  RH WIND       PRES   REMARKS
ROCHESTER      LGT RAIN  65  63  93 NE3       29.97S
RED WING       LGT RAIN  66  64  94 E6        29.95F
STANTON        DRIZZLE   66  64  92 E7        29.93F
DODGE CENTER   DRIZZLE   64  64 100 E7        29.95F
WINONA         RAIN      66  64  94 SE12      29.96F
AUSTIN         RAIN      64  64 100 CALM      29.93F
PRESTON        CLOUDY    65  65 100 CALM      29.96S
$$
ABBREVIATIONS USED IN REMARKS
   TC - TEMPERATURES IN CELSIUS
  WCI - WIND CHILL INDEX
   HX - HEAT INDEX
  VSB - VISIBILITY
$$



USA.gov is the U.S. government's official web portal to all federal, state and local government web resources and services.